[[{"header":{"parameterUnit":"m.s-1","parameterCategory":1,"la1":30.2991,"la2":30.254,"lo1":-89.0895,"lo2":-89.0444,"dy":0.0017,"dx":0.0017,"nx":28,"ny":28,"refTime":"2024-10-04T09:00:00:Z","depth":0,"parameterNumber":2,"parameterNumberName":"U-component_of_WINDS"},"data":[0,0,0,0,0,0,0,0,0,0,0,0,0,0,0,0,0,0,0,0,0,0,0,0,0,0,0,0,0,0,0,0,0,0,0,0,0,0,0,0,0,0,0,0,0,0,0,0,0,0,0,0,0,0,0,0,0,0,-4.0898,-4.0899,0,-4.0954,-4.0954,-4.0955,-4.0829,-4.0825,-4.0821,-4.0817,-4.0876,-4.0881,-4.0887,0,0,0,0,0,0,0,0,0,0,0,0,0,-4.0685,-4.069,-4.0898,-4.0899,-4.09,-4.0954,-4.0954,-4.0955,-4.083,-4.0825,-4.082,-4.0816,-4.0874,-4.0881,-4.0887,0,0,0,0,0,0,0,0,0,0,0,0,0,-4.0763,-4.0691,-4.0898,-4.0843,-4.0839,-4.0953,-4.0954,-4.0955,-4.0831,-4.0825,-4.0819,-4.0813,-4.0872,-4.088,-4.0888,-4.1058,0,0,-4.0912,-4.0916,0,0,0,0,0,0,0,0,-4.0759,-4.0771,-4.0851,-4.0847,-4.0843,-4.0878,-4.0901,-4.099,-4.0833,-4.0834,-4.0817,-4.081,-4.0882,-4.0889,-4.0912,-4.1061,-4.1064,-4.0913,-4.0918,-4.0921,-4.0924,0,0,0,0,0,0,0,-4.0753,-4.0768,-4.092,-4.0852,-4.0847,-4.0817,-4.0821,-4.0917,-4.0891,-4.0834,-4.0825,-4.0833,-4.0879,-4.0905,-4.0913,-4.1064,-4.0913,-4.092,-4.0925,-4.0928,-4.1358,-4.1364,0,0,0,0,0,0,-4.0755,-4.0764,-4.0918,-4.0922,-4.0785,-4.0826,-4.083,-4.0873,-4.089,-4.0887,-4.0838,-4.0827,-4.0894,-4.0904,-4.0915,-4.1117,-4.0921,-4.0929,-4.0933,-4.1351,-4.1359,-4.1366,0,0,0,0,0,0,-4.0751,-4.077,-4.0916,-4.0841,-4.0857,-4.0836,-4.0885,-4.0877,-4.0904,-4.0893,-4.0888,-4.087,-4.089,-4.0903,-4.1024,-4.1117,-4.0932,-4.094,-4.1343,-4.1353,-4.1363,-4.1523,0,0,0,0,0,0,-4.0745,-4.0769,-4.0833,-4.0843,-4.0861,-4.1025,-4.089,-4.0883,-4.0918,-4.0904,-4.0922,-4.0919,-4.0886,-4.1013,-4.1032,-4.1125,-4.0946,-4.1335,-4.1348,-4.1359,-4.1509,-4.1537,-4.1561,0,0,0,0,0,-4.0738,-4.0876,-4.0837,-4.0856,-4.0941,-4.103,-4.1041,-4.1,-4.0926,-4.0991,-4.0984,-4.0918,-4.1103,-4.1026,-4.1047,-4.1144,-4.1329,-4.1344,-4.1359,-4.1498,-4.1532,-4.156,0,0,0,0,0,0,-4.0878,-4.0876,-4.0833,-4.0978,-4.1005,-4.1009,-4.1089,-4.1037,-4.1086,-4.1071,-4.1018,-4.1024,-4.1155,-4.116,-4.1074,-4.131,-4.1204,-4.1223,-4.1302,-4.1335,-4.136,-4.1357,-4.0953,0,0,0,0,0,-4.0926,-4.0998,-4.0992,-4.1121,-4.1137,-4.1111,-4.1148,-4.1114,-4.114,-4.1151,-4.1153,-4.1182,-4.1246,-4.129,-4.1349,-4.1508,-4.1512,-4.1585,-4.1611,-4.1632,-4.1651,-4.1738,-4.1772,-4.1415,-4.1415,-4.1415,0,0,-4.1026,-4.1033,-4.1082,-4.115,-4.1166,-4.1243,-4.1122,-4.1207,-4.1264,-4.1164,-4.1279,-4.1282,-4.131,-4.1452,-4.1514,-4.146,-4.175,-4.1651,-4.1668,-4.1676,-4.1757,-4.1791,-4.1821,-4.1425,-4.1423,-4.1422,0,0,-4.1247,-4.1259,-4.1369,-4.1389,-4.1416,-4.1397,-4.1424,-4.1435,-4.1433,-4.1547,-4.1475,-4.1541,-4.1653,-4.1677,-4.1704,-4.1934,-4.1877,-4.1955,-4.2091,-4.2177,-4.2205,-4.223,-4.2315,-4.2346,-4.1973,-4.1973,-4.1973,0,-4.1368,-4.1481,-4.1432,-4.1524,-4.1557,-4.1469,-4.158,-4.1601,-4.1647,-4.1672,-4.161,-4.175,-4.1762,-4.191,-4.1966,-4.199,-4.202,-4.1954,-4.2205,-4.2229,-4.2251,-4.2332,-4.2364,-4.1983,-4.1982,-4.1981,-4.198,0,-4.1629,-4.1708,-4.1793,-4.184,-4.1881,-4.1983,-4.195,-4.1998,-4.1961,-4.195,-4.2068,-4.2079,-4.214,-4.2171,-4.2135,-4.2315,-4.2281,-4.2213,-4.2105,-4.2296,-4.2371,-4.2401,-4.1996,-4.1993,-4.199,-4.1988,0,0,-4.1943,-4.1961,-4.1993,-4.2014,-4.2037,-4.2098,-4.2195,-4.2254,-4.2298,-4.2331,-4.2413,-4.251,-4.2447,-4.2478,-4.2443,-4.2518,-4.2704,-4.2441,-4.2441,-4.2493,-4.2905,-4.2959,-4.2995,-4.2665,-4.267,-4.2675,-4.2904,0,-4.2164,-4.2332,-4.2291,-4.2458,-4.2532,-4.2449,-4.2534,-4.2558,-4.255,-4.2612,-4.2602,-4.2673,-4.2584,-4.2602,-4.2672,-4.2667,-4.2787,-4.2649,-4.2743,-4.2747,-4.2742,-4.3034,-4.309,-4.3306,-4.2932,-4.2937,-4.2941,0,-4.2446,-4.2491,-4.2665,-4.2678,-4.2707,-4.2784,-4.2836,-4.2895,-4.2921,-4.291,-4.2945,-4.2895,-4.2993,-4.2882,-4.3017,-4.2925,-4.296,-4.2963,-4.297,-4.298,-4.2858,-4.3055,-4.3373,-4.3407,-4.2986,-4.2982,-4.2979,0,-4.2661,-4.2765,-4.2883,-4.2903,-4.292,-4.2976,-4.2986,-4.3006,-4.3044,-4.3089,-4.3114,-4.3169,-4.3201,-4.3245,-4.3213,-4.3135,-4.3355,-4.324,-4.335,-4.3352,-4.3403,-4.3401,-4.3736,-4.3421,-4.342,-4.342,-4.3419,0,-4.2915,-4.3026,-4.298,-4.3054,-4.3175,-4.3127,-4.3249,-4.3249,-4.3268,-4.334,-4.3271,-4.3341,-4.3292,-4.3358,-4.3333,-4.3451,-4.3464,-4.346,-4.3453,-4.3468,-4.3469,-4.3493,-4.3479,-4.3428,-4.3426,-4.3425,-4.3423,0,-4.3178,-4.3151,-4.3275,-4.3281,-4.3285,-4.3375,-4.338,-4.3448,-4.3434,-4.3527,-4.3546,-4.3525,-4.3599,-4.3571,-4.3649,-4.3633,-4.3784,-4.3755,-4.3776,-4.377,-4.3882,-4.3874,-4.4247,-4.4294,-4.3946,-4.3949,-4.3952,0,-4.3343,-4.3426,-4.3441,-4.3485,-4.3499,-4.357,-4.3609,-4.3564,-4.3608,-4.3644,-4.3709,-4.3776,-4.3829,-4.3951,-4.3944,-4.4004,-4.3978,-4.4105,-4.3987,-4.4001,-4.3984,-4.3981,-4.3991,-4.413,-4.4134,-4.4137,-4.414,0,-4.3641,-4.3624,-4.3682,-4.3737,-4.3785,-4.3826,-4.3861,-4.3901,-4.3858,-4.3911,-4.3985,-4.4026,-4.4106,-4.4176,-4.423,-4.424,-4.4185,-4.4176,-4.4206,-4.4224,-4.4234,-4.4234,-4.3844,-4.4169,-4.4166,-4.4164,-4.4162,-4.4161,-4.3862,-4.3933,-4.3955,-4.4023,-4.4044,-4.4079,-4.4144,-4.4138,-4.4199,-4.4262,-4.4231,-4.4319,-4.4343,-4.441,-4.4428,-4.4497,-4.4448,-4.4489,-4.45,-4.4512,-4.4529,-4.422,-4.4506,-4.4505,-4.4504,-4.4503,-4.4503,0,-4.4159,-4.4168,-4.4231,-4.4283,-4.4337,-4.4277,-4.4313,-4.4362,-4.444,-4.4467,-4.452,-4.4607,-4.4674,-4.4672,-4.4734,-4.4789,-4.4766,-4.4808,-4.4805,-4.4809,-4.4567,-4.4537,-4.4826,-4.4826,-4.4826,-4.4826,-4.4826,-4.4826,-4.432,-4.4438,-4.4423,-4.4551,-4.456,-4.4645,-4.4671,-4.4703,-4.4725,-4.4825,-4.488,-4.4877,-4.4893,-4.4956,-4.5016,-4.5013,-4.5041,-4.5093,-4.5082,-4.4857,-4.4825,-4.4795,-4.4767,-4.5099,-4.5099,-4.5318,-4.532,-4.5322]},{"header":{"parameterUnit":"m.s-1","parameterCategory":1,"la1":30.2991,"la2":30.254,"lo1":-89.0895,"lo2":-89.0444,"dy":0.0017,"dx":0.0017,"nx":28,"ny":28,"refTime":"2024-10-04T09:00:00:Z","depth":0,"parameterNumber":3,"parameterNumberName":"V-component_of_WINDS"},"data":[0,0,0,0,0,0,0,0,0,0,0,0,0,0,0,0,0,0,0,0,0,0,0,0,0,0,0,0,0,0,0,0,0,0,0,0,0,0,0,0,0,0,0,0,0,0,0,0,0,0,0,0,0,0,0,0,0,0,-3.4679,-3.4679,0,-3.4683,-3.4683,-3.4683,-3.4642,-3.4641,-3.464,-3.4639,-3.4642,-3.4643,-3.4644,0,0,0,0,0,0,0,0,0,0,0,0,0,-3.4635,-3.4636,-3.4679,-3.4679,-3.4679,-3.4683,-3.4683,-3.4683,-3.4642,-3.4641,-3.4639,-3.4638,-3.4642,-3.4643,-3.4644,0,0,0,0,0,0,0,0,0,0,0,0,0,-3.4648,-3.4636,-3.4679,-3.4659,-3.4658,-3.4683,-3.4683,-3.4683,-3.4642,-3.4641,-3.4639,-3.4638,-3.4641,-3.4643,-3.4645,-3.4689,0,0,-3.465,-3.465,0,0,0,0,0,0,0,0,-3.4647,-3.465,-3.4662,-3.4661,-3.4659,-3.466,-3.4668,-3.4685,-3.4643,-3.4648,-3.4639,-3.4637,-3.4649,-3.465,-3.4655,-3.4689,-3.4689,-3.465,-3.4651,-3.4652,-3.4652,0,0,0,0,0,0,0,-3.4646,-3.4649,-3.468,-3.4662,-3.466,-3.465,-3.465,-3.4671,-3.4658,-3.4648,-3.4645,-3.4646,-3.4648,-3.4653,-3.4654,-3.4689,-3.465,-3.4651,-3.4652,-3.4653,-3.4757,-3.4759,0,0,0,0,0,0,-3.4648,-3.4649,-3.468,-3.4681,-3.4649,-3.4652,-3.4652,-3.4661,-3.4658,-3.4656,-3.4647,-3.4644,-3.4651,-3.4653,-3.4654,-3.4704,-3.4652,-3.4653,-3.4654,-3.4755,-3.4758,-3.4759,0,0,0,0,0,0,-3.4648,-3.4652,-3.468,-3.4664,-3.4667,-3.4654,-3.4666,-3.4662,-3.4667,-3.4657,-3.4655,-3.4655,-3.465,-3.4652,-3.468,-3.4704,-3.4654,-3.4656,-3.4753,-3.4756,-3.4758,-3.4805,0,0,0,0,0,0,-3.4646,-3.4652,-3.4669,-3.4665,-3.4668,-3.4706,-3.4667,-3.4664,-3.467,-3.4666,-3.4664,-3.4662,-3.4649,-3.4678,-3.4682,-3.4705,-3.4657,-3.4751,-3.4755,-3.4758,-3.4801,-3.4809,-3.4815,0,0,0,0,0,-3.4645,-3.4682,-3.467,-3.4674,-3.4689,-3.4708,-3.471,-3.4694,-3.4673,-3.4689,-3.4682,-3.4662,-3.4701,-3.4681,-3.4685,-3.4709,-3.475,-3.4754,-3.4757,-3.4798,-3.4807,-3.4815,0,0,0,0,0,0,-3.469,-3.4681,-3.4668,-3.4705,-3.4707,-3.4701,-3.4722,-3.4704,-3.4713,-3.4709,-3.4688,-3.4688,-3.4719,-3.4717,-3.4695,-3.4751,-3.4721,-3.4726,-3.4751,-3.4759,-3.4766,-3.4766,-3.4658,0,0,0,0,0,-3.4704,-3.472,-3.4712,-3.4745,-3.4747,-3.4734,-3.4742,-3.4729,-3.4731,-3.4732,-3.4728,-3.473,-3.4742,-3.4751,-3.4762,-3.4801,-3.4799,-3.482,-3.4827,-3.4833,-3.4837,-3.4855,-3.4863,-3.4772,-3.4772,-3.4772,0,0,-3.4734,-3.4731,-3.4743,-3.4754,-3.4755,-3.4771,-3.4736,-3.4755,-3.4767,-3.4735,-3.4761,-3.4757,-3.4759,-3.4792,-3.4806,-3.4791,-3.4861,-3.4838,-3.4842,-3.4843,-3.486,-3.4868,-3.4876,-3.4775,-3.4774,-3.4774,0,0,-3.4795,-3.4796,-3.4822,-3.4823,-3.4824,-3.4815,-3.4822,-3.4818,-3.4814,-3.484,-3.4815,-3.4829,-3.4851,-3.4852,-3.4856,-3.4916,-3.4897,-3.4921,-3.4957,-3.4975,-3.4982,-3.4988,-3.5008,-3.5016,-3.4925,-3.4925,-3.4925,0,-3.4832,-3.4856,-3.4838,-3.4859,-3.4864,-3.4836,-3.4862,-3.4863,-3.4868,-3.4872,-3.4855,-3.4881,-3.488,-3.4912,-3.4927,-3.4931,-3.4937,-3.492,-3.4983,-3.4989,-3.4994,-3.5013,-3.502,-3.4928,-3.4928,-3.4927,-3.4927,0,-3.49,-3.4917,-3.4938,-3.4942,-3.495,-3.4973,-3.4958,-3.4968,-3.4955,-3.4947,-3.4972,-3.497,-3.4979,-3.4986,-3.4973,-3.5015,-3.5006,-3.4986,-3.4956,-3.5006,-3.5023,-3.503,-3.4932,-3.4931,-3.493,-3.4929,0,0,-3.499,-3.4983,-3.4991,-3.4992,-3.499,-3.5003,-3.5024,-3.5033,-3.504,-3.5045,-3.5061,-3.508,-3.5061,-3.5065,-3.5052,-3.5068,-3.5114,-3.5047,-3.5046,-3.5058,-3.5158,-3.5171,-3.518,-3.5101,-3.5103,-3.5104,-3.5157,0,-3.5049,-3.5084,-3.5068,-3.5106,-3.512,-3.5093,-3.5111,-3.5111,-3.5105,-3.5115,-3.5108,-3.5121,-3.5096,-3.5098,-3.5113,-3.5105,-3.5133,-3.5101,-3.5115,-3.5116,-3.5114,-3.5189,-3.5204,-3.5254,-3.5164,-3.5165,-3.5166,0,-3.5122,-3.5128,-3.5166,-3.516,-3.5165,-3.5182,-3.5187,-3.5198,-3.5198,-3.5192,-3.5195,-3.5178,-3.5198,-3.5169,-3.5194,-3.5173,-3.5177,-3.5174,-3.5176,-3.5175,-3.5143,-3.5189,-3.527,-3.5277,-3.5176,-3.5175,-3.5175,0,-3.5181,-3.5199,-3.5224,-3.5225,-3.5219,-3.5231,-3.5229,-3.5227,-3.5232,-3.5237,-3.524,-3.5248,-3.5251,-3.5257,-3.5242,-3.5223,-3.5269,-3.5239,-3.5263,-3.5263,-3.5273,-3.5272,-3.5354,-3.5279,-3.5279,-3.5279,-3.5279,0,-3.5248,-3.5272,-3.525,-3.5265,-3.5291,-3.5272,-3.5298,-3.5293,-3.5291,-3.5303,-3.5281,-3.5293,-3.5273,-3.5284,-3.5272,-3.5294,-3.5296,-3.5291,-3.5287,-3.5292,-3.5292,-3.5294,-3.5289,-3.5281,-3.528,-3.528,-3.528,0,-3.5318,-3.5305,-3.533,-3.5321,-3.5319,-3.5339,-3.5331,-3.5344,-3.5335,-3.5352,-3.5355,-3.5341,-3.5352,-3.5337,-3.5347,-3.5339,-3.5368,-3.536,-3.5368,-3.5365,-3.5389,-3.5387,-3.5474,-3.5484,-3.5404,-3.5405,-3.5405,0,-3.5361,-3.5378,-3.5371,-3.5378,-3.5377,-3.5388,-3.5393,-3.5375,-3.5381,-3.5381,-3.5394,-3.5402,-3.5408,-3.5427,-3.5417,-3.5424,-3.5415,-3.5445,-3.5416,-3.5419,-3.5413,-3.5411,-3.5412,-3.545,-3.5451,-3.5452,-3.5453,0,-3.5436,-3.5428,-3.5436,-3.5442,-3.5448,-3.5452,-3.5454,-3.546,-3.5441,-3.5449,-3.5459,-3.5464,-3.5473,-3.5481,-3.5485,-3.5483,-3.5464,-3.5462,-3.5468,-3.5472,-3.5475,-3.5472,-3.5383,-3.546,-3.5459,-3.5459,-3.5458,-3.5458,-3.5493,-3.5506,-3.5503,-3.5512,-3.5511,-3.5513,-3.5524,-3.5516,-3.5524,-3.553,-3.5519,-3.5531,-3.5529,-3.5532,-3.5531,-3.5541,-3.5527,-3.5536,-3.5538,-3.554,-3.5543,-3.5475,-3.5542,-3.5541,-3.5541,-3.5541,-3.5541,0,-3.5566,-3.5562,-3.557,-3.5573,-3.558,-3.5562,-3.5562,-3.5569,-3.558,-3.5579,-3.5585,-3.5596,-3.5604,-3.5595,-3.56,-3.5609,-3.5601,-3.5611,-3.561,-3.5609,-3.5555,-3.5549,-3.5618,-3.5618,-3.5618,-3.5618,-3.5618,-3.5618,-3.5604,-3.5625,-3.5617,-3.5637,-3.5633,-3.5644,-3.5646,-3.5647,-3.5646,-3.5659,-3.5665,-3.5659,-3.5654,-3.5659,-3.5665,-3.5662,-3.5664,-3.5677,-3.5671,-3.5621,-3.5613,-3.5606,-3.56,-3.5678,-3.5678,-3.5724,-3.5724,-3.5724]}]]